• In Belgien
  • Länderverzeichnis
  • Für 7 Tage
  • Wassertemperatur
  • Satellitenkarten
  • Wetterkarte
  • Widgets
  • user-avatar
    Anmelden

    Stündliche Wetter Nivelles

    Heute, 20 Februar, Dienstag

    Zeit Temperatur Niederschläge Wind Luftdruck Luftfeuchtigkeit
    00:00 +1°C° 0 mm 1 m/S 752 mmHg 77%
    01:00 +1°C° 0 mm 1 m/S 752 mmHg 78%
    02:00 +1°C° 0 mm 1 m/S 752 mmHg 78%
    03:00 +1°C° 0 mm 1 m/S 752 mmHg 79%
    04:00 +1°C° 0 mm 1 m/S 752 mmHg 78%
    05:00 +1°C° 0 mm 1 m/S 752 mmHg 76%
    06:00 +1°C° 0 mm 1 m/S 752 mmHg 75%
    07:00 +2°C° 0 mm 1 m/S 752 mmHg 71%
    08:00 +3°C° 0 mm 1 m/S 753 mmHg 68%
    09:00 +3°C° 0 mm 1 m/S 753 mmHg 64%
    10:00 +4°C° 0 mm 1 m/S 753 mmHg 61%
    11:00 +5°C° 0 mm 1 m/S 753 mmHg 57%
    12:00 +6°C° 0 mm 1 m/S 753 mmHg 56%
    13:00 +6°C° 0 mm 1 m/S 753 mmHg 56%
    14:00 +5°C° 0 mm 2 m/S 753 mmHg 56%
    15:00 +5°C° 0 mm 2 m/S 752 mmHg 56%
    16:00 +4°C° 0 mm 2 m/S 753 mmHg 61%
    17:00 +3°C° 0 mm 2 m/S 753 mmHg 66%
    18:00 +2°C° 0 mm 2 m/S 753 mmHg 70%
    19:00 +1°C° 0 mm 3 m/S 754 mmHg 72%
    20:00 0°C° 0 mm 3 m/S 754 mmHg 73%
    21:00 0°C° 0 mm 3 m/S 755 mmHg 75%
    22:00 -1°C° 0 mm 3 m/S 755 mmHg 77%
    23:00 -2°C° 0 mm 3 m/S 756 mmHg 79%

    Morgen, 21 Februar, Mittwoch

    Zeit Temperatur Niederschläge Wind Luftdruck Luftfeuchtigkeit
    00:00 -2°C° 0 mm 3 m/S 756 mmHg 80%
    01:00 -2°C° 0 mm 3 m/S 756 mmHg 82%
    02:00 -4°C° 0 mm 3 m/S 756 mmHg 83%
    03:00 -4°C° 0 mm 3 m/S 757 mmHg 84%
    04:00 -4°C° 0 mm 3 m/S 757 mmHg 85%
    05:00 -4°C° 0 mm 3 m/S 757 mmHg 85%
    06:00 -4°C° 0 mm 3 m/S 757 mmHg 86%
    07:00 -2°C° 0 mm 3 m/S 757 mmHg 80%
    08:00 -1°C° 0 mm 3 m/S 757 mmHg 74%
    09:00 -1°C° 0 mm 4 m/S 757 mmHg 67%
    10:00 0°C° 0 mm 4 m/S 757 mmHg 63%
    11:00 +1°C° 0 mm 4 m/S 757 mmHg 58%
    12:00 +3°C° 0 mm 4 m/S 757 mmHg 54%
    13:00 +3°C° 0 mm 4 m/S 757 mmHg 54%
    14:00 +4°C° 0 mm 4 m/S 757 mmHg 53%
    15:00 +4°C° 0 mm 4 m/S 756 mmHg 53%
    16:00 +1°C° 0 mm 4 m/S 756 mmHg 59%
    17:00 0°C° 0 mm 4 m/S 756 mmHg 64%
    18:00 -1°C° 0 mm 3 m/S 756 mmHg 69%
    19:00 -1°C° 0 mm 3 m/S 756 mmHg 71%
    20:00 -2°C° 0 mm 3 m/S 756 mmHg 72%
    21:00 -2°C° 0 mm 3 m/S 757 mmHg 74%
    22:00 -2°C° 0 mm 3 m/S 756 mmHg 75%
    23:00 -4°C° 0 mm 3 m/S 756 mmHg 77%

    übermorgen, 22 Februar, Donnerstag

    Zeit Temperatur Niederschläge Wind Luftdruck Luftfeuchtigkeit
    00:00 -4°C° 0 mm 3 m/S 756 mmHg 78%
    01:00 -4°C° 0 mm 3 m/S 756 mmHg 78%
    02:00 -4°C° 0 mm 3 m/S 756 mmHg 79%
    03:00 -4°C° 0 mm 3 m/S 756 mmHg 79%
    04:00 -4°C° 0 mm 3 m/S 756 mmHg 79%
    05:00 -4°C° 0 mm 3 m/S 756 mmHg 79%
    06:00 -4°C° 0 mm 4 m/S 756 mmHg 78%
    07:00 -3°C° 0 mm 4 m/S 756 mmHg 72%
    08:00 -2°C° 0 mm 5 m/S 756 mmHg 65%
    09:00 -1°C° 0 mm 5 m/S 756 mmHg 58%
    10:00 -1°C° 0 mm 6 m/S 756 mmHg 52%
    11:00 +1°C° 0 mm 6 m/S 756 mmHg 46%
    12:00 +2°C° 0 mm 6 m/S 755 mmHg 39%
    13:00 +2°C° 0 mm 6 m/S 755 mmHg 39%
    14:00 +2°C° 0 mm 6 m/S 755 mmHg 39%
    15:00 +2°C° 0 mm 6 m/S 754 mmHg 39%
    16:00 +1°C° 0 mm 5 m/S 755 mmHg 44%
    17:00 -1°C° 0 mm 5 m/S 755 mmHg 49%
    18:00 -2°C° 0 mm 4 m/S 755 mmHg 54%
    19:00 -2°C° 0 mm 4 m/S 755 mmHg 57%
    20:00 -4°C° 0 mm 5 m/S 755 mmHg 60%
    21:00 -4°C° 0 mm 5 m/S 756 mmHg 62%
    22:00 -3°C° 0 mm 4 m/S 755 mmHg 64%
    23:00 -4°C° 0 mm 4 m/S 755 mmHg 66%

    23 Februar, Freitag

    Zeit Temperatur Niederschläge Wind Luftdruck Luftfeuchtigkeit
    00:00 -4°C° 0 mm 4 m/S 755 mmHg 68%
    01:00 -4°C° 0 mm 4 m/S 755 mmHg 70%
    02:00 -4°C° 0 mm 4 m/S 755 mmHg 71%
    03:00 -4°C° 0 mm 4 m/S 755 mmHg 73%
    04:00 -4°C° 0 mm 4 m/S 755 mmHg 72%
    05:00 -6°C° 0 mm 5 m/S 755 mmHg 72%
    06:00 -6°C° 0 mm 5 m/S 755 mmHg 71%
    07:00 -5°C° 0 mm 5 m/S 755 mmHg 65%
    08:00 -4°C° 0 mm 6 m/S 755 mmHg 59%
    09:00 -3°C° 0 mm 6 m/S 755 mmHg 53%
    10:00 -2°C° 0 mm 6 m/S 755 mmHg 48%
    11:00 -1°C° 0 mm 6 m/S 755 mmHg 43%
    12:00 +1°C° 0 mm 6 m/S 755 mmHg 37%
    13:00 +1°C° 0 mm 6 m/S 755 mmHg 36%
    14:00 +2°C° 0 mm 6 m/S 754 mmHg 36%
    15:00 +2°C° 0 mm 6 m/S 754 mmHg 35%
    16:00 +1°C° 0 mm 6 m/S 754 mmHg 38%
    17:00 -1°C° 0 mm 5 m/S 754 mmHg 41%
    18:00 -2°C° 0 mm 4 m/S 754 mmHg 45%
    19:00 -2°C° 0 mm 5 m/S 754 mmHg 45%
    20:00 -4°C° 0 mm 5 m/S 755 mmHg 45%
    21:00 -4°C° 0 mm 5 m/S 755 mmHg 46%
    22:00 -4°C° 0 mm 5 m/S 755 mmHg 46%
    23:00 -5°C° 0 mm 5 m/S 755 mmHg 47%

    24 Februar, Samstag

    Zeit Temperatur Niederschläge Wind Luftdruck Luftfeuchtigkeit
    00:00 -5°C° 0 mm 5 m/S 755 mmHg 47%
    01:00 -5°C° 0 mm 5 m/S 755 mmHg 47%
    02:00 -5°C° 0 mm 5 m/S 754 mmHg 48%
    03:00 -5°C° 0 mm 5 m/S 754 mmHg 48%
    04:00 -5°C° 0 mm 5 m/S 754 mmHg 47%
    05:00 -5°C° 0 mm 5 m/S 754 mmHg 46%
    06:00 -5°C° 0 mm 5 m/S 754 mmHg 46%
    07:00 -4°C° 0 mm 6 m/S 754 mmHg 43%
    08:00 -3°C° 0 mm 6 m/S 755 mmHg 40%
    09:00 -2°C° 0 mm 7 m/S 755 mmHg 37%
    10:00 -1°C° 0 mm 7 m/S 755 mmHg 36%
    11:00 0°C° 0 mm 7 m/S 755 mmHg 35%
    12:00 +2°C° 0 mm 7 m/S 755 mmHg 34%
    13:00 +2°C° 0 mm 7 m/S 754 mmHg 34%
    14:00 +3°C° 0 mm 7 m/S 754 mmHg 34%
    15:00 +3°C° 0 mm 7 m/S 754 mmHg 34%
    16:00 +2°C° 0 mm 7 m/S 754 mmHg 35%
    17:00 -1°C° 0 mm 6 m/S 755 mmHg 36%
    18:00 -2°C° 0 mm 6 m/S 755 mmHg 38%
    19:00 -3°C° 0 mm 6 m/S 756 mmHg 38%
    20:00 -4°C° 0 mm 6 m/S 756 mmHg 38%
    21:00 -4°C° 0 mm 6 m/S 756 mmHg 38%
    22:00 -5°C° 0 mm 6 m/S 757 mmHg 38%
    23:00 -5°C° 0 mm 6 m/S 757 mmHg 37%

    25 Februar, Sonntag

    Zeit Temperatur Niederschläge Wind Luftdruck Luftfeuchtigkeit
    00:00 -5°C° 0 mm 6 m/S 757 mmHg 36%
    01:00 -5°C° 0 mm 6 m/S 757 mmHg 38%
    02:00 -6°C° 0 mm 6 m/S 757 mmHg 40%
    03:00 -6°C° 0 mm 6 m/S 757 mmHg 41%
    04:00 -6°C° 0 mm 6 m/S 758 mmHg 43%
    05:00 -6°C° 0 mm 6 m/S 758 mmHg 45%
    06:00 -8°C° 0 mm 6 m/S 758 mmHg 47%
    07:00 -7°C° 0 mm 7 m/S 759 mmHg 43%
    08:00 -6°C° 0 mm 7 m/S 759 mmHg 38%
    09:00 -6°C° 0 mm 8 m/S 759 mmHg 34%
    10:00 -4°C° 0 mm 7 m/S 759 mmHg 30%
    11:00 -3°C° 0 mm 7 m/S 759 mmHg 26%
    12:00 -2°C° 0 mm 7 m/S 759 mmHg 21%
    13:00 -2°C° 0 mm 7 m/S 759 mmHg 22%
    14:00 -2°C° 0 mm 7 m/S 759 mmHg 22%
    15:00 -2°C° 0 mm 7 m/S 759 mmHg 22%
    16:00 -3°C° 0 mm 6 m/S 760 mmHg 25%
    17:00 -5°C° 0 mm 6 m/S 760 mmHg 27%
    18:00 -6°C° 0 mm 5 m/S 760 mmHg 30%
    19:00 -6°C° 0 mm 5 m/S 761 mmHg 31%
    20:00 -7°C° 0 mm 5 m/S 761 mmHg 32%
    21:00 -7°C° 0 mm 5 m/S 761 mmHg 32%
    22:00 -7°C° 0 mm 5 m/S 761 mmHg 33%
    23:00 -8°C° 0 mm 5 m/S 762 mmHg 33%
    Mehr zeigen